,,Stat6,,Stat2,,Stat8,,Stat9,,Stat10,,Wind1,,Wind1,
time,status,PA1M_AVG,status,PR1M_SUM,status,RH1M_AVG,status,SR1M_AVG,status,TA1M_AVG,status,W1dAve1m,status,W1sAve1m,
2004-08-24, 00:00:00,VALID,919.92,VALID,0,VALID,95.8739,VALID,-0.101885,VALID,20.0855,VALID,5,VALID,1.11105,
2004-08-24, 00:01:00,VALID,919.906,VALID,0,VALID,95.7073,VALID,-0.118866,VALID,20.1086,VALID,338,VALID,0.528201,
2004-08-24, 00:02:00,VALID,919.885,VALID,0,VALID,95.6959,VALID,-0.101885,VALID,20.1143,VALID,322,VALID,0.164608,
2004-08-24, 00:03:00,VALID,919.87,VALID,0,VALID,95.7378,VALID,-0.135847,VALID,20.1446,VALID,322,VALID,0.174352,
2004-08-24, 00:04:00,VALID,919.829,VALID,0,VALID,95.8701,VALID,-0.101885,VALID,20.1237,VALID,343,VALID,0.337391,
2004-08-24, 00:05:00,VALID,919.83,VALID,0,VALID,96.0481,VALID,-0.101885,VALID,20.1369,VALID,356,VALID,0.324505,
2004-08-24, 00:06:00,VALID,919.814,VALID,0,VALID,96.2071,VALID,-0.0849042,VALID,20.1374,VALID,357,VALID,0.463299,
2004-08-24, 00:07:00,VALID,919.797,VALID,0,VALID,96.3215,VALID,-0.101885,VALID,20.1141,VALID,13,VALID,1.02288,
2004-08-24, 00:08:00,VALID,919.8,VALID,0,VALID,96.3647,VALID,-0.101885,VALID,20.1113,VALID,19,VALID,1.51325,
2004-08-24, 00:09:00,VALID,919.802,VALID,0,VALID,96.2465,VALID,-0.0509425,VALID,20.088,VALID,16,VALID,1.12109,
2004-08-24, 00:10:00,VALID,919.805,VALID,0,VALID,96.099,VALID,0,VALID,20.0775,VALID,7,VALID,0.496528,
2004-08-24, 00:11:00,VALID,919.797,VALID,0,VALID,95.9553,VALID,0,VALID,20.074,VALID,316,VALID,0.810594,
2004-08-24, 00:12:00,VALID,919.786,VALID,0,VALID,95.2801,VALID,-0.0169808,VALID,20.1133,VALID,301,VALID,0.82832,
2004-08-24, 00:13:00,VALID,919.766,VALID,0,VALID,95.0397,VALID,0,VALID,20.1548,VALID,14,VALID,1.19316,
2004-08-24, 00:14:00,VALID,919.744,VALID,0,VALID,94.8808,VALID,0.0169808,VALID,20.1741,VALID,16,VALID,0.803499,
2004-08-24, 00:15:00,VALID,919.689,VALID,0,VALID,94.7651,VALID,0,VALID,20.1838,VALID,19,VALID,0.676054,
2004-08-24, 00:16:00,VALID,919.67,VALID,0,VALID,94.8019,VALID,-0.0169808,VALID,20.1938,VALID,19,VALID,0.324505,
2004-08-24, 00:17:00,VALID,919.634,VALID,0,VALID,94.9176,VALID,0,VALID,20.1809,VALID,19,VALID,0.419965,
2004-08-24, 00:18:00,VALID,919.596,VALID,0,VALID,95.1173,VALID,-0.0169808,VALID,20.1526,VALID,19,VALID,0.225818,
2004-08-24, 00:19:00,VALID,919.582,VALID,0,VALID,95.2292,VALID,0.0169808,VALID,20.1133,VALID,19,VALID,0,
2004-08-24, 00:20:00,VALID,919.569,VALID,0,VALID,95.4072,VALID,-0.0339617,VALID,20.1141,VALID,19,VALID,0.105469,
2004-08-24, 00:21:00,VALID,919.573,VALID,0,VALID,95.467,VALID,0,VALID,20.0775,VALID,19,VALID,0.0245536,
2004-08-24, 00:22:00,VALID,919.565,VALID,0,VALID,95.4988,VALID,-0.0339617,VALID,20.0554,VALID,20,VALID,0.132431,
2004-08-24, 00:23:00,VALID,919.547,VALID,0,VALID,95.5954,VALID,-0.0169808,VALID,20.0224,VALID,28,VALID,0.472284,
2004-08-24, 00:24:00,VALID,919.55,VALID,0,VALID,95.6043,VALID,-0.0169808,VALID,19.9836,VALID,23,VALID,0.606707,
2004-08-24, 00:25:00,VALID,919.547,VALID,0,VALID,95.6768,VALID,0,VALID,19.9451,VALID,16,VALID,0.133743,
2004-08-24, 00:26:00,VALID,919.552,VALID,0,VALID,95.8243,VALID,0,VALID,19.9128,VALID,16,VALID,0.192073,
2004-08-24, 00:27:00,VALID,919.53,VALID,0,VALID,95.9464,VALID,0,VALID,19.8771,VALID,16,VALID,0.636814,
2004-08-24, 00:28:00,VALID,919.524,VALID,0,VALID,96.0913,VALID,-0.0169808,VALID,19.8418,VALID,25,VALID,1.0545,
2004-08-24, 00:29:00,VALID,919.52,VALID,0,VALID,96.2897,VALID,0,VALID,19.8229,VALID,15,VALID,0.85816,
2004-08-24, 00:30:00,VALID,919.518,VALID,0,VALID,96.38,VALID,-0.0169808,VALID,19.8095,VALID,18,VALID,0.517987,
2004-08-24, 00:31:00,VALID,919.505,VALID,0,VALID,96.5758,VALID,-0.0169808,VALID,19.8028,VALID,18,VALID,0.384055,
2004-08-24, 00:32:00,VALID,919.485,VALID,0,VALID,96.703,VALID,0,VALID,19.8291,VALID,21,VALID,0.529492,
2004-08-24, 00:33:00,VALID,919.443,VALID,0,VALID,96.6445,VALID,0,VALID,19.8647,VALID,14,VALID,0.501598,
2004-08-24, 00:34:00,VALID,919.42,VALID,0,VALID,96.53,VALID,-0.0169808,VALID,19.8642,VALID,11,VALID,0.689135,
2004-08-24, 00:35:00,VALID,919.388,VALID,0,VALID,96.5046,VALID,0.0169808,VALID,19.8609,VALID,11,VALID,1.04554,
2004-08-24, 00:36:00,VALID,919.36,VALID,0,VALID,96.5682,VALID,0,VALID,19.8585,VALID,15,VALID,0.812305,
2004-08-24, 00:37:00,VALID,919.33,VALID,0,VALID,96.6381,VALID,0,VALID,19.855,VALID,360,VALID,0.780523,
2004-08-24, 00:38:00,VALID,919.317,VALID,0,VALID,96.7564,VALID,0,VALID,19.8612,VALID,15,VALID,1.13953,
2004-08-24, 00:39:00,VALID,919.307,VALID,0,VALID,96.7971,VALID,0,VALID,19.8649,VALID,26,VALID,0.960556,
2004-08-24, 00:40:00,VALID,919.284,VALID,0,VALID,96.7666,VALID,-0.0169808,VALID,19.8676,VALID,11,VALID,0.973474,
2004-08-24, 00:41:00,VALID,919.268,VALID,0,VALID,96.7093,VALID,-0.0169808,VALID,19.8741,VALID,359,VALID,0.164453,
2004-08-24, 00:42:00,VALID,919.244,VALID,0,VALID,96.7335,VALID,0,VALID,19.8907,VALID,23,VALID,0.625586,
2004-08-24, 00:43:00,VALID,919.223,VALID,0,VALID,96.7577,VALID,0,VALID,19.8999,VALID,22,VALID,0.316992,
2004-08-24, 00:44:00,VALID,919.215,VALID,0,VALID,96.6979,VALID,0,VALID,19.9099,VALID,20,VALID,0.769531,
2004-08-24, 00:45:00,VALID,919.19,VALID,0,VALID,96.6508,VALID,-0.0169808,VALID,19.897,VALID,13,VALID,1.18271,
2004-08-24, 00:46:00,VALID,919.185,VALID,0,VALID,96.717,VALID,0,VALID,19.8709,VALID,336,VALID,0.412388,
2004-08-24, 00:47:00,VALID,919.172,VALID,0,VALID,96.7449,VALID,-0.0169808,VALID,19.8609,VALID,349,VALID,0.212358,
2004-08-24, 00:48:00,VALID,919.162,VALID,0,VALID,96.8149,VALID,-0.0339617,VALID,19.8644,VALID,2,VALID,1.26432,
2004-08-24, 00:49:00,VALID,919.159,VALID,0,VALID,96.7526,VALID,0,VALID,19.8997,VALID,8,VALID,1.1283,
2004-08-24, 00:50:00,VALID,919.147,VALID,0,VALID,96.717,VALID,-0.0169808,VALID,19.9061,VALID,16,VALID,1.53181,
2004-08-24, 00:51:00,VALID,919.15,VALID,0,VALID,96.6737,VALID,0,VALID,19.926,VALID,13,VALID,0.832485,
2004-08-24, 00:52:00,VALID,919.129,VALID,0,VALID,96.6038,VALID,-0.0169808,VALID,19.9258,VALID,21,VALID,0.613009,
2004-08-24, 00:53:00,VALID,919.134,VALID,0,VALID,96.6292,VALID,0,VALID,19.9161,VALID,354,VALID,0.557813,
2004-08-24, 00:54:00,VALID,919.104,VALID,0,VALID,96.7233,VALID,-0.0169808,VALID,19.923,VALID,15,VALID,0.624455,
2004-08-24, 00:55:00,VALID,919.061,VALID,0,VALID,96.7627,VALID,-0.0169808,VALID,19.9161,VALID,28,VALID,1.53963,
2004-08-24, 00:56:00,VALID,919.068,VALID,0,VALID,96.7615,VALID,-0.0169808,VALID,19.9255,VALID,14,VALID,1.60212,
2004-08-24, 00:57:00,VALID,919.03,VALID,0,VALID,96.6877,VALID,-0.0169808,VALID,19.9255,VALID,13,VALID,0.998884,
2004-08-24, 00:58:00,VALID,918.998,VALID,0,VALID,96.5746,VALID,-0.0169808,VALID,19.9456,VALID,29,VALID,0.84468,
2004-08-24, 00:59:00,VALID,918.955,VALID,0,VALID,96.4957,VALID,-0.0169808,VALID,19.9454,VALID,25,VALID,0.822359,
2004-08-24, 01:00:00,VALID,918.923,VALID,0,VALID,96.3749,VALID,-0.0339617,VALID,19.9451,VALID,12,VALID,1.56878,
2004-08-24, 01:01:00,VALID,918.884,VALID,0,VALID,96.3711,VALID,0,VALID,19.9387,VALID,22,VALID,1.47621,
2004-08-24, 01:02:00,VALID,918.863,VALID,0,VALID,96.455,VALID,-0.0339617,VALID,19.9387,VALID,18,VALID,1.71894,
2004-08-24, 01:03:00,VALID,918.852,VALID,0,VALID,96.4563,VALID,-0.0339617,VALID,19.9422,VALID,21,VALID,1.5798,
2004-08-24, 01:04:00,VALID,918.824,VALID,0,VALID,96.441,VALID,-0.0339617,VALID,19.9518,VALID,23,VALID,1.66741,
2004-08-24, 01:05:00,VALID,918.795,VALID,0,VALID,96.3965,VALID,-0.0509425,VALID,19.9516,VALID,21,VALID,1.68004,
2004-08-24, 01:06:00,VALID,918.784,VALID,0,VALID,96.3876,VALID,-0.0339617,VALID,19.9516,VALID,18,VALID,1.55432,
2004-08-24, 01:07:00,VALID,918.759,VALID,0,VALID,96.3711,VALID,-0.0169808,VALID,19.9484,VALID,21,VALID,1.54371,
2004-08-24, 01:08:00,VALID,918.746,VALID,0,VALID,96.338,VALID,-0.0339617,VALID,19.9591,VALID,9,VALID,0.969658,
2004-08-24, 01:09:00,VALID,918.745,VALID,0,VALID,96.3825,VALID,-0.0169808,VALID,19.9354,VALID,14,VALID,1.12729,
2004-08-24, 01:10:00,VALID,918.734,VALID,0,VALID,96.3813,VALID,-0.0339617,VALID,19.9258,VALID,20,VALID,1.71589,
2004-08-24, 01:11:00,VALID,918.729,VALID,0,VALID,96.3965,VALID,-0.0339617,VALID,19.9263,VALID,14,VALID,1.08026,
2004-08-24, 01:12:00,VALID,918.719,VALID,0,VALID,96.3902,VALID,-0.0339617,VALID,19.9069,VALID,15,VALID,0.708079,
2004-08-24, 01:13:00,VALID,918.711,VALID,0,VALID,96.5211,VALID,-0.0339617,VALID,19.9074,VALID,11,VALID,1.39971,
2004-08-24, 01:14:00,VALID,918.719,VALID,0,VALID,96.6203,VALID,-0.0679233,VALID,19.8935,VALID,16,VALID,1.51935,
2004-08-24, 01:15:00,VALID,918.705,VALID,0,VALID,96.633,VALID,-0.0509425,VALID,19.8942,VALID,16,VALID,1.22532,
2004-08-24, 01:16:00,VALID,918.709,VALID,0,VALID,96.7017,VALID,-0.0339617,VALID,19.8902,VALID,346,VALID,1.29279,
2004-08-24, 01:17:00,VALID,918.714,VALID,0,VALID,96.6814,VALID,-0.0339617,VALID,19.9133,VALID,15,VALID,1.18559,
2004-08-24, 01:18:00,VALID,918.696,VALID,0,VALID,96.6178,VALID,-0.0169808,VALID,19.9066,VALID,15,VALID,1.1583,
2004-08-24, 01:19:00,VALID,918.704,VALID,0,VALID,96.6547,VALID,0,VALID,19.9163,VALID,17,VALID,0.822129,
2004-08-24, 01:20:00,VALID,918.695,VALID,0,VALID,96.6801,VALID,-0.0339617,VALID,19.9131,VALID,19,VALID,1.62754,
2004-08-24, 01:21:00,VALID,918.709,VALID,0,VALID,96.7208,VALID,-0.0169808,VALID,19.9362,VALID,14,VALID,1.60309,
2004-08-24, 01:22:00,VALID,918.696,VALID,0,VALID,96.7004,VALID,-0.0339617,VALID,19.9394,VALID,18,VALID,1.45367,
2004-08-24, 01:23:00,VALID,918.679,VALID,0,VALID,96.7208,VALID,-0.0509425,VALID,19.933,VALID,2,VALID,1.36319,
2004-08-24, 01:24:00,VALID,918.666,VALID,0,VALID,96.6636,VALID,0,VALID,19.9198,VALID,15,VALID,1.45313,
2004-08-24, 01:25:00,VALID,918.656,VALID,0,VALID,96.7755,VALID,-0.0509425,VALID,19.8999,VALID,13,VALID,2.06213,
2004-08-24, 01:26:00,VALID,918.648,VALID,0,VALID,96.8289,VALID,-0.0339617,VALID,19.9076,VALID,11,VALID,1.70694,
2004-08-24, 01:27:00,VALID,918.628,VALID,0,VALID,96.8467,VALID,-0.0509425,VALID,19.8875,VALID,11,VALID,1.49963,
2004-08-24, 01:28:00,VALID,918.641,VALID,0,VALID,96.8683,VALID,-0.0509425,VALID,19.8585,VALID,358,VALID,1.34722,
2004-08-24, 01:29:00,VALID,918.623,VALID,0,VALID,97.0743,VALID,0,VALID,19.8421,VALID,11,VALID,1.37682,
2004-08-24, 01:30:00,VALID,918.605,VALID,0,VALID,97.2116,VALID,-0.0169808,VALID,19.8485,VALID,13,VALID,1.4615,
2004-08-24, 01:31:00,VALID,918.608,VALID,0,VALID,97.1989,VALID,-0.0169808,VALID,19.8421,VALID,12,VALID,1.64063,
2004-08-24, 01:32:00,VALID,918.602,VALID,0,VALID,97.2027,VALID,-0.0679233,VALID,19.852,VALID,9,VALID,1.4842,
2004-08-24, 01:33:00,VALID,918.598,VALID,0,VALID,97.2129,VALID,-0.0679233,VALID,19.8488,VALID,9,VALID,1.61932,
2004-08-24, 01:34:00,VALID,918.58,VALID,0,VALID,97.3362,VALID,-0.0339617,VALID,19.8391,VALID,7,VALID,1.75497,
2004-08-24, 01:35:00,VALID,918.556,VALID,0,VALID,97.3502,VALID,-0.0339617,VALID,19.8294,VALID,5,VALID,1.47638,
2004-08-24, 01:36:00,VALID,918.53,VALID,0,VALID,97.3401,VALID,-0.0509425,VALID,19.8334,VALID,9,VALID,1.61626,
2004-08-24, 01:37:00,VALID,918.526,VALID,0,VALID,97.471,VALID,-0.0849042,VALID,19.8103,VALID,352,VALID,1.54102,
2004-08-24, 01:38:00,VALID,918.529,VALID,0,VALID,97.6236,VALID,-0.0339617,VALID,19.8108,VALID,13,VALID,1.64935,
2004-08-24, 01:39:00,VALID,918.514,VALID,0,VALID,97.6707,VALID,-0.0509425,VALID,19.8105,VALID,9,VALID,1.33631,
2004-08-24, 01:40:00,VALID,918.512,VALID,0,VALID,97.7101,VALID,-0.0679233,VALID,19.8043,VALID,349,VALID,0.803943,
2004-08-24, 01:41:00,VALID,918.506,VALID,0,VALID,97.7762,VALID,-0.101885,VALID,19.8041,VALID,353,VALID,0.793605,
2004-08-24, 01:42:00,VALID,918.489,VALID,0,VALID,97.8296,VALID,-0.0339617,VALID,19.8001,VALID,15,VALID,1.5,
2004-08-24, 01:43:00,VALID,918.464,VALID,0,VALID,97.8767,VALID,-0.0679233,VALID,19.817,VALID,18,VALID,1.58711,
2004-08-24, 01:44:00,VALID,918.431,VALID,0,VALID,97.9034,VALID,-0.0339617,VALID,19.8262,VALID,360,VALID,1.83308,
2004-08-24, 01:45:00,VALID,918.41,VALID,0,VALID,97.8983,VALID,-0.0679233,VALID,19.8393,VALID,17,VALID,1.68806,
2004-08-24, 01:46:00,VALID,918.386,VALID,0,VALID,97.8563,VALID,-0.0509425,VALID,19.8458,VALID,14,VALID,1.62427,
2004-08-24, 01:47:00,VALID,918.363,VALID,0,VALID,97.883,VALID,-0.0509425,VALID,19.8393,VALID,15,VALID,1.3293,
2004-08-24, 01:48:00,VALID,918.336,VALID,0,VALID,97.8322,VALID,-0.0509425,VALID,19.8356,VALID,20,VALID,1.66788,
2004-08-24, 01:49:00,VALID,918.33,VALID,0,VALID,97.8423,VALID,-0.0169808,VALID,19.8426,VALID,8,VALID,1.56818,
2004-08-24, 01:50:00,VALID,918.342,VALID,0,VALID,97.9466,VALID,-0.0339617,VALID,19.8294,VALID,5,VALID,1.51302,
2004-08-24, 01:51:00,VALID,918.339,VALID,0,VALID,97.9288,VALID,-0.0339617,VALID,19.8393,VALID,22,VALID,1.37995,
2004-08-24, 01:52:00,VALID,918.325,VALID,0,VALID,97.9708,VALID,0,VALID,19.8259,VALID,13,VALID,1.60724,
2004-08-24, 01:53:00,VALID,918.318,VALID,0,VALID,98.0598,VALID,0,VALID,19.8356,VALID,20,VALID,2.18695,
2004-08-24, 01:54:00,VALID,918.349,VALID,0,VALID,98.0509,VALID,-0.0169808,VALID,19.8515,VALID,23,VALID,1.25127,
2004-08-24, 01:55:00,VALID,918.348,VALID,0,VALID,98.0165,VALID,0,VALID,19.8622,VALID,15,VALID,1.4053,
2004-08-24, 01:56:00,VALID,918.348,VALID,0,VALID,98.0585,VALID,0,VALID,19.8517,VALID,351,VALID,1.47002,
2004-08-24, 01:57:00,VALID,918.336,VALID,0,VALID,98.1602,VALID,-0.0339617,VALID,19.8582,VALID,23,VALID,1.28196,
2004-08-24, 01:58:00,VALID,918.335,VALID,0,VALID,98.1437,VALID,0,VALID,19.8746,VALID,15,VALID,1.80602,
2004-08-24, 01:59:00,VALID,918.363,VALID,0,VALID,98.1068,VALID,0,VALID,19.8741,VALID,20,VALID,1.33359,
2004-08-24, 02:00:00,VALID,918.365,VALID,0,VALID,98.0954,VALID,0,VALID,19.8743,VALID,16,VALID,1.40892,
2004-08-24, 02:01:00,VALID,918.361,VALID,0,VALID,98.0839,VALID,0,VALID,19.8813,VALID,22,VALID,0.998728,
2004-08-24, 02:02:00,VALID,918.361,VALID,0,VALID,98.1552,VALID,-0.0339617,VALID,19.8679,VALID,351,VALID,1.48881,
2004-08-24, 02:03:00,VALID,918.356,VALID,0,VALID,98.1806,VALID,0,VALID,19.8776,VALID,13,VALID,1.92171,
2004-08-24, 02:04:00,VALID,918.355,VALID,0,VALID,98.145,VALID,-0.0509425,VALID,19.8848,VALID,5,VALID,1.74931,
2004-08-24, 02:05:00,VALID,918.35,VALID,0,VALID,98.1971,VALID,-0.0169808,VALID,19.8649,VALID,10,VALID,2.01882,
2004-08-24, 02:06:00,VALID,918.349,VALID,0,VALID,98.295,VALID,-0.0169808,VALID,19.8684,VALID,357,VALID,1.71307,
2004-08-24, 02:07:00,VALID,918.317,VALID,0,VALID,98.3586,VALID,0,VALID,19.8649,VALID,5,VALID,2.23421,
2004-08-24, 02:08:00,VALID,918.314,VALID,0,VALID,98.4006,VALID,-0.0169808,VALID,19.8617,VALID,11,VALID,1.63263,
2004-08-24, 02:09:00,VALID,918.305,VALID,0,VALID,98.4006,VALID,-0.0339617,VALID,19.8488,VALID,17,VALID,1.75539,
2004-08-24, 02:10:00,VALID,918.282,VALID,0,VALID,98.3993,VALID,0.0169808,VALID,19.8294,VALID,19,VALID,1.6431,
2004-08-24, 02:11:00,VALID,918.259,VALID,0,VALID,98.4069,VALID,0,VALID,19.8262,VALID,21,VALID,1.23299,
2004-08-24, 02:12:00,VALID,918.235,VALID,0,VALID,98.4527,VALID,0,VALID,19.8038,VALID,15,VALID,1.34691,
2004-08-24, 02:13:00,VALID,918.223,VALID,0,VALID,98.6384,VALID,0,VALID,19.81,VALID,16,VALID,1.58665,
2004-08-24, 02:14:00,VALID,918.196,VALID,0,VALID,98.7058,VALID,0,VALID,19.8137,VALID,18,VALID,1.31938,
2004-08-24, 02:15:00,VALID,918.171,VALID,0,VALID,98.6956,VALID,-0.0339617,VALID,19.8038,VALID,14,VALID,1.07913,
2004-08-24, 02:16:00,VALID,918.155,VALID,0,VALID,98.6803,VALID,0,VALID,19.7939,VALID,20,VALID,1.62252,
2004-08-24, 02:17:00,VALID,918.118,VALID,0,VALID,98.7236,VALID,-0.0339617,VALID,19.771,VALID,17,VALID,1.72676,
2004-08-24, 02:18:00,VALID,918.121,VALID,0,VALID,98.6854,VALID,-0.0339617,VALID,19.7651,VALID,21,VALID,1.94627,
2004-08-24, 02:19:00,VALID,918.122,VALID,0,VALID,98.6562,VALID,0,VALID,19.7452,VALID,20,VALID,2.28161,
2004-08-24, 02:20:00,VALID,918.121,VALID,0,VALID,98.6829,VALID,0,VALID,19.7318,VALID,12,VALID,2.17204,
2004-08-24, 02:21:00,VALID,918.135,VALID,0,VALID,98.6206,VALID,0,VALID,19.7293,VALID,19,VALID,2.0641,
2004-08-24, 02:22:00,VALID,918.152,VALID,0,VALID,98.5163,VALID,0.0169808,VALID,19.7164,VALID,23,VALID,1.54008,
2004-08-24, 02:23:00,VALID,918.158,VALID,0,VALID,98.501,VALID,0.0169808,VALID,19.6928,VALID,21,VALID,1.92671,
2004-08-24, 02:24:00,VALID,918.162,VALID,0,VALID,98.5951,VALID,0,VALID,19.6846,VALID,22,VALID,1.53316,
2004-08-24, 02:25:00,VALID,918.162,VALID,0,VALID,98.6206,VALID,-0.0169808,VALID,19.665,VALID,16,VALID,0.863554,
2004-08-24, 02:26:00,VALID,918.155,VALID,0,VALID,98.6358,VALID,0,VALID,19.6394,VALID,21,VALID,1.47603,
2004-08-24, 02:27:00,VALID,918.162,VALID,0,VALID,98.7134,VALID,0,VALID,19.6165,VALID,10,VALID,1.5439,
2004-08-24, 02:28:00,VALID,918.167,VALID,0,VALID,98.7554,VALID,0,VALID,19.6165,VALID,21,VALID,0.879906,
2004-08-24, 02:29:00,VALID,918.175,VALID,0,VALID,98.7337,VALID,0,VALID,19.6103,VALID,7,VALID,0.780849,
2004-08-24, 02:30:00,VALID,918.206,VALID,0,VALID,98.7795,VALID,0,VALID,19.6039,VALID,37,VALID,0.307813,
2004-08-24, 02:31:00,VALID,918.216,VALID,0,VALID,98.7693,VALID,0,VALID,19.5838,VALID,31,VALID,0.600521,
2004-08-24, 02:32:00,VALID,918.222,VALID,0,VALID,98.735,VALID,0,VALID,19.581,VALID,26,VALID,0.869591,
2004-08-24, 02:33:00,VALID,918.223,VALID,0,VALID,98.8609,VALID,0,VALID,19.5746,VALID,21,VALID,0.928125,
2004-08-24, 02:34:00,VALID,918.224,VALID,0,VALID,98.9766,VALID,0,VALID,19.5805,VALID,20,VALID,0.94215,
2004-08-24, 02:35:00,VALID,918.205,VALID,0,VALID,99.0911,VALID,0,VALID,19.6004,VALID,17,VALID,0.675114,
2004-08-24, 02:36:00,VALID,918.174,VALID,0,VALID,99.1076,VALID,0,VALID,19.6133,VALID,28,VALID,0.497852,
2004-08-24, 02:37:00,VALID,918.152,VALID,0,VALID,99.1623,VALID,0,VALID,19.6165,VALID,32,VALID,0.434659,
2004-08-24, 02:38:00,VALID,918.138,VALID,0,VALID,99.2182,VALID,0,VALID,19.6396,VALID,31,VALID,0.48601,
2004-08-24, 02:39:00,VALID,918.133,VALID,0,VALID,99.2564,VALID,0,VALID,19.6518,VALID,21,VALID,0.768895,
2004-08-24, 02:40:00,VALID,918.12,VALID,0,VALID,99.2996,VALID,0,VALID,19.6655,VALID,17,VALID,1.13814,
2004-08-24, 02:41:00,VALID,918.116,VALID,0,VALID,99.3556,VALID,-0.0169808,VALID,19.6811,VALID,21,VALID,1.14971,
2004-08-24, 02:42:00,VALID,918.112,VALID,0,VALID,99.3988,VALID,0,VALID,19.6908,VALID,2,VALID,0.862233,
2004-08-24, 02:43:00,VALID,918.107,VALID,0,VALID,99.4179,VALID,-0.0509425,VALID,19.7139,VALID,20,VALID,1.1131,
2004-08-24, 02:44:00,VALID,918.107,VALID,0,VALID,99.3886,VALID,0.0169808,VALID,19.7231,VALID,15,VALID,1.19643,
2004-08-24, 02:45:00,VALID,918.12,VALID,0,VALID,99.3708,VALID,-0.0169808,VALID,19.742,VALID,22,VALID,1.22008,
2004-08-24, 02:46:00,VALID,918.137,VALID,0,VALID,99.3288,VALID,-0.0169808,VALID,19.7656,VALID,11,VALID,1.26529,
2004-08-24, 02:47:00,VALID,918.155,VALID,0,VALID,99.2449,VALID,0,VALID,19.7745,VALID,12,VALID,1.17932,
2004-08-24, 02:48:00,VALID,918.152,VALID,0,VALID,99.1699,VALID,-0.0339617,VALID,19.8013,VALID,16,VALID,1.0625,
2004-08-24, 02:49:00,VALID,918.156,VALID,0,VALID,99.0987,VALID,-0.0679233,VALID,19.814,VALID,10,VALID,1.06432,
2004-08-24, 02:50:00,VALID,918.153,VALID,0,VALID,99.0237,VALID,-0.0339617,VALID,19.8202,VALID,19,VALID,1.1568,
2004-08-24, 02:51:00,VALID,918.131,VALID,0,VALID,99.0084,VALID,-0.0169808,VALID,19.8366,VALID,18,VALID,1.38301,
2004-08-24, 02:52:00,VALID,918.11,VALID,0,VALID,98.9931,VALID,0,VALID,19.8433,VALID,16,VALID,1.2834,
2004-08-24, 02:53:00,VALID,918.074,VALID,0,VALID,98.983,VALID,-0.0169808,VALID,19.8525,VALID,22,VALID,1.24099,
2004-08-24, 02:54:00,VALID,918.059,VALID,0,VALID,98.8838,VALID,0.0169808,VALID,19.8686,VALID,21,VALID,1.55841,
2004-08-24, 02:55:00,VALID,918.032,VALID,0,VALID,98.8545,VALID,-0.0169808,VALID,19.8684,VALID,16,VALID,1.36254,
2004-08-24, 02:56:00,VALID,918.035,VALID,0,VALID,98.7922,VALID,0,VALID,19.8751,VALID,20,VALID,1.03144,
2004-08-24, 02:57:00,VALID,918.017,VALID,0,VALID,98.7604,VALID,0,VALID,19.8808,VALID,13,VALID,0.581759,
2004-08-24, 02:58:00,VALID,918.008,VALID,0,VALID,98.6956,VALID,-0.0339617,VALID,19.888,VALID,4,VALID,0.622768,
2004-08-24, 02:59:00,VALID,917.986,VALID,0,VALID,98.6333,VALID,0,VALID,19.8808,VALID,358,VALID,0.721298,
2004-08-24, 03:00:00,VALID,917.961,VALID,0,VALID,98.5722,VALID,0,VALID,19.894,VALID,345,VALID,1.09432,
2004-08-24, 03:01:00,VALID,917.964,VALID,0,VALID,98.5112,VALID,0,VALID,19.9069,VALID,353,VALID,1.08854,
2004-08-24, 03:02:00,VALID,917.95,VALID,0,VALID,98.4273,VALID,-0.0339617,VALID,19.9168,VALID,358,VALID,1.03779,
2004-08-24, 03:03:00,VALID,917.975,VALID,0,VALID,98.3891,VALID,0,VALID,19.9126,VALID,10,VALID,0.850229,
2004-08-24, 03:04:00,VALID,917.987,VALID,0,VALID,98.4502,VALID,-0.0339617,VALID,19.9198,VALID,14,VALID,0.878405,
2004-08-24, 03:05:00,VALID,918.006,VALID,0,VALID,98.4731,VALID,0,VALID,19.9161,VALID,8,VALID,0.680246,
2004-08-24, 03:06:00,VALID,918.042,VALID,0,VALID,98.4527,VALID,0,VALID,19.9327,VALID,5,VALID,0.699128,
2004-08-24, 03:07:00,VALID,918.065,VALID,0,VALID,98.4642,VALID,0,VALID,19.923,VALID,10,VALID,0.925114,
2004-08-24, 03:08:00,VALID,918.083,VALID,0,VALID,98.4731,VALID,0,VALID,19.9263,VALID,358,VALID,0.930804,
2004-08-24, 03:09:00,VALID,918.075,VALID,0,VALID,98.487,VALID,0,VALID,19.9332,VALID,21,VALID,0.622656,
2004-08-24, 03:10:00,VALID,918.08,VALID,0,VALID,98.4896,VALID,-0.0169808,VALID,19.9459,VALID,26,VALID,0.339939,
2004-08-24, 03:11:00,VALID,918.077,VALID,0,VALID,98.5201,VALID,0,VALID,19.9354,VALID,26,VALID,0.196403,
2004-08-24, 03:12:00,VALID,918.063,VALID,0,VALID,98.4959,VALID,0,VALID,19.9417,VALID,21,VALID,0.467862,
2004-08-24, 03:13:00,VALID,918.054,VALID,0,VALID,98.4616,VALID,-0.0169808,VALID,19.9553,VALID,12,VALID,0.590774,
2004-08-24, 03:14:00,VALID,918.059,VALID,0,VALID,98.4654,VALID,0,VALID,19.9489,VALID,12,VALID,0.414844,
2004-08-24, 03:15:00,VALID,918.053,VALID,0,VALID,98.4642,VALID,0,VALID,19.9357,VALID,12,VALID,0.100074,
2004-08-24, 03:16:00,VALID,918.045,VALID,0,VALID,98.5913,VALID,0.0169808,VALID,19.9387,VALID,12,VALID,0.273793,
2004-08-24, 03:17:00,VALID,918.036,VALID,0,VALID,98.7147,VALID,0,VALID,19.9521,VALID,12,VALID,0.356001,
2004-08-24, 03:18:00,VALID,918.019,VALID,0,VALID,98.7973,VALID,-0.0169808,VALID,19.9546,VALID,12,VALID,0.130078,
2004-08-24, 03:19:00,VALID,918.001,VALID,0,VALID,98.8533,VALID,0,VALID,19.9682,VALID,12,VALID,0,
2004-08-24, 03:20:00,VALID,917.982,VALID,0,VALID,98.8965,VALID,0,VALID,19.9782,VALID,12,VALID,0,
2004-08-24, 03:21:00,VALID,917.951,VALID,0,VALID,98.9245,VALID,0,VALID,19.968,VALID,12,VALID,0,
2004-08-24, 03:22:00,VALID,917.924,VALID,0,VALID,98.9067,VALID,0,VALID,19.9643,VALID,12,VALID,0,
2004-08-24, 03:23:00,VALID,917.891,VALID,0,VALID,98.8952,VALID,0,VALID,19.9682,VALID,12,VALID,0,
2004-08-24, 03:24:00,VALID,917.87,VALID,0,VALID,98.894,VALID,0,VALID,19.9645,VALID,12,VALID,0,
2004-08-24, 03:25:00,VALID,917.831,VALID,0,VALID,98.9537,VALID,-0.0169808,VALID,19.9645,VALID,12,VALID,0,
2004-08-24, 03:26:00,VALID,917.811,VALID,0,VALID,98.894,VALID,0,VALID,19.968,VALID,12,VALID,0,
2004-08-24, 03:27:00,VALID,917.779,VALID,0,VALID,98.8558,VALID,0,VALID,19.9424,VALID,12,VALID,0,
2004-08-24, 03:28:00,VALID,917.741,VALID,0,VALID,98.8863,VALID,-0.0169808,VALID,19.9223,VALID,12,VALID,0,
2004-08-24, 03:29:00,VALID,917.738,VALID,0,VALID,98.9258,VALID,0,VALID,19.9061,VALID,12,VALID,0,
2004-08-24, 03:30:00,VALID,917.722,VALID,0,VALID,99.0186,VALID,0,VALID,19.9126,VALID,12,VALID,0,
2004-08-24, 03:31:00,VALID,917.718,VALID,0,VALID,99.0987,VALID,-0.0169808,VALID,19.9126,VALID,12,VALID,0,
2004-08-24, 03:32:00,VALID,917.718,VALID,0,VALID,99.161,VALID,0,VALID,19.9191,VALID,12,VALID,0,
2004-08-24, 03:33:00,VALID,917.731,VALID,0,VALID,99.1915,VALID,-0.0169808,VALID,19.926,VALID,12,VALID,0,
2004-08-24, 03:34:00,VALID,917.74,VALID,0,VALID,99.1941,VALID,0,VALID,19.9061,VALID,12,VALID,0,
2004-08-24, 03:35:00,VALID,917.742,VALID,0,VALID,99.2602,VALID,0.0509425,VALID,19.9163,VALID,12,VALID,0,
2004-08-24, 03:36:00,VALID,917.743,VALID,0,VALID,99.311,VALID,0,VALID,19.9094,VALID,12,VALID,0,
2004-08-24, 03:37:00,VALID,917.747,VALID,0,VALID,99.3301,VALID,0.0169808,VALID,19.9128,VALID,22,VALID,0.22247,
2004-08-24, 03:38:00,VALID,917.736,VALID,0,VALID,99.2551,VALID,0,VALID,19.8965,VALID,158,VALID,0.338021,